Location: Unspecified
(0.0000°N, 0.0000°E)
Time: 17:25:25
(UTC+00:00)

LightSail 2 - Pass Details

Date: 15 January 2020
Orbit: 704 x 720 km, 24.0° (Epoch: 22 January)

Event Time Altitude Azimuth Distance (km) Brightness Sun altitude
Exits shadow 04:04:21 54° 74° (ENE) 848 5.6 -28.9°
Drops below altitude 10° 04:08:31 10° 107° (ESE) 2,161 8.6 -27.9°
Sets 04:10:58 0° 110° (ESE) 3,079 9.7 -27.4°
